User: anonymous   Login
Location: Brede
(50.9167°N, 0.6000°E)
Time: 22:16:10
(UTC+00:00)
Language:

H-2A R/B - Orbit

View from above orbital plane
View from above orbital plane
View from above satellite
View from above satellite

Ground track
Ground track

The orbit data is extracted from the following two-line orbital elements,

1 38341U 12025E   21169.47186404  .00000142  00000-0  24045-4 0  9998
2 38341  98.5277 355.0293 0056240 135.3649 225.2112 14.84233500491654
Epoch (UTC): 18 June 2021 11:19:29
Eccentricity: 0.0056240
inclination: 98.5277°
perigee height: 576 km
apogee height: 655 km
right ascension of ascending node: 355.0293°
argument of perigee: 135.3649°
revolutions per day: 14.84233500
mean anomaly at epoch: 225.2112°
orbit number at epoch: 49165

The dashed part of the orbit path shows where the satellite is in the earth's shadow,  

DLR